Wind_Speed
11 12 12 12 12 12 11 11 11 10 10 10 10 9 9 9 8 8 8 9 9 9 8 8 8 8 8 9 9 10 10 10 11 12 12 12 12 12 12 12 12 12 12 13
12 11 12 12 12 12 12 11 11 10 10 11 11 10 10 10 9 9 9 9 9 9 9 9 9 9 9 9 9 10 10 11 11 12 13 13 13 13 13 13 14 14 13 13
12 12 13 13 13 12 13 12 12 12 12 12 12 12 11 11 10 10 9 9 10 10 10 10 10 10 10 10 10 10 11 11 12 12 13 13 13 13 13 14 14 13 13 14
13 13 13 14 14 13 13 13 13 13 13 14 14 14 12 11 11 11 10 10 10 11 11 11 11 10 11 11 11 11 12 12 12 12 13 13 14 14 14 14 14 14 14 14
13 14 13 14 14 14 14 13 14 14 15 15 15 15 12 11 12 11 11 10 10 11 12 12 11 11 11 11 12 12 13 13 13 13 13 13 14 14 15 15 15 15 15 15
14 14 14 14 14 14 14 14 14 15 16 16 14 15 13 12 12 12 12 11 11 11 11 11 11 11 11 11 12 12 13 13 14 14 14 14 14 15 15 15 15 16 16 16
14 14 14 14 15 15 15 15 15 16 16 16 15 16 14 13 12 12 12 12 12 11 11 11 12 11 12 12 12 13 13 14 14 14 15 15 15 16 16 16 16 17 17 17
15 15 16 16 16 16 16 16 17 17 17 16 16 16 15 13 12 12 12 12 12 12 12 12 12 13 13 13 13 13 14 14 14 15 15 16 16 17 17 18 18 18 18 18
15 16 16 16 16 16 17 17 17 18 18 18 17 16 15 14 13 12 12 13 12 12 13 14 14 13 14 14 14 14 15 15 16 16 16 17 17 17 18 18 19 19 19 19
16 16 16 15 16 16 17 17 17 18 19 18 18 17 16 15 14 14 13 14 14 13 14 15 15 15 15 15 15 15 16 16 17 17 18 18 19 19 19 20 20 20 20 21
17 17 17 17 17 17 17 18 19 20 20 19 18 17 16 16 16 16 15 15 15 15 16 16 16 16 16 16 16 16 17 17 18 18 18 19 19 19 20 21 21 21 21 22
17 18 18 18 18 18 18 18 19 21 21 20 20 18 18 17 17 17 17 16 16 16 17 17 17 17 17 17 17 18 18 18 19 20 20 20 20 20 21 21 21 22 22 22
17 18 19 19 19 19 19 20 21 22 22 22 21 19 18 18 18 19 19 19 19 19 19 19 19 19 19 19 19 19 19 19 20 20 21 21 22 22 22 22 22 23 23 23
18 19 19 19 19 20 20 21 21 22 23 23 22 21 19 19 19 18 19 19 20 21 20 20 19 19 19 19 20 20 20 20 21 21 22 22 23 23 23 23 23 24 24 24
18 19 19 19 19 19 20 21 21 22 22 23 22 21 21 21 20 20 20 20 21 22 22 21 20 20 20 21 21 21 22 22 22 23 23 23 24 24 24 24 24 24 25 25
18 20 20 19 19 19 19 20 20 21 22 23 22 21 21 21 21 21 22 22 23 23 23 22 22 22 22 23 23 22 23 23 23 23 24 24 24 25 25 25 24 25 26 26
18 19 19 19 19 20 20 18 20 21 21 22 22 21 21 22 22 22 23 24 24 24 24 24 23 23 23 23 23 24 24 24 24 24 24 24 25 25 25 25 26 26 26 26
18 18 18 19 20 21 19 19 21 21 21 22 21 21 21 21 21 21 22 23 24 24 24 25 25 25 24 24 24 24 24 25 25 26 26 26 26 26 26 26 27 27 27 28
20 19 19 20 21 21 20 20 21 21 21 21 21 21 21 21 22 22 23 23 24 24 24 24 25 25 25 25 25 25 25 25 26 26 26 26 27 27 28 28 29 29 29 30
21 22 22 21 21 21 20 21 22 22 22 20 20 20 21 21 22 22 23 24 24 24 25 25 25 25 26 26 26 27 27 27 27 27 26 27 28 28 29 29 30 30 30 31
22 22 23 22 22 22 21 21 22 22 21 22 22 21 21 22 22 23 24 25 25 25 26 26 26 25 25 26 26 27 28 28 28 28 28 28 29 30 30 30 31 31 31 32
21 21 22 22 22 21 21 21 21 21 22 22 23 22 22 22 23 24 24 25 25 26 26 27 27 26 26 27 27 28 28 29 29 29 30 30 30 30 31 31 32 32 32 33
21 21 21 21 21 21 22 22 23 22 22 23 23 23 24 24 24 24 25 25 26 27 27 28 28 27 27 27 28 29 30 30 30 30 31 31 31 31 32 32 33 33 32 32
21 22 22 22 21 22 23 23 23 24 23 23 24 24 25 26 26 26 26 26 27 28 29 29 29 28 28 28 28 29 30 30 30 31 31 32 32 32 32 32 33 33 32 32
23 23 23 23 23 23 23 23 24 24 24 25 26 26 27 28 28 28 28 27 27 28 29 29 29 29 29 30 30 30 30 30 31 31 31 31 32 32 33 32 33 32 32 31
23 24 23 23 23 24 24 24 24 25 25 26 27 27 28 29 29 29 29 29 29 29 30 30 31 30 30 30 30 30 31 31 31 31 32 32 32 32 33 33 32 32 32 32
Wind_Direction
236 237 237 239 241 242 244 244 244 247 250 252 254 256 260 266 272 276 280 282 285 285 286 287 287 284 284 285 286 287 286 284 281 280 281 281 281 280 277 276 277 278 280 281
239 238 237 239 242 244 246 247 250 253 254 255 257 261 263 265 268 270 273 278 280 280 279 280 281 282 283 285 287 284 284 285 284 282 280 281 281 280 279 277 278 279 282 282
243 241 240 242 245 248 250 251 253 254 253 256 258 261 264 268 270 269 269 272 273 273 278 279 279 280 283 287 290 289 287 287 286 283 282 282 281 280 280 280 282 281 283 283
244 242 243 246 248 251 251 252 254 257 256 258 261 264 266 269 269 271 268 265 268 273 276 279 280 281 283 286 288 290 289 287 287 285 282 280 281 281 281 280 281 282 283 284
244 243 244 246 247 249 250 251 253 256 257 259 261 265 266 265 267 268 268 268 271 274 276 278 280 281 283 285 288 288 288 288 288 287 284 281 281 281 282 281 281 282 283 284
245 245 246 248 247 250 252 252 250 253 257 258 259 261 264 263 266 269 267 269 272 275 276 277 277 278 281 283 286 288 286 286 286 286 285 282 280 280 282 282 281 280 281 282
247 246 246 246 247 247 250 250 249 251 255 257 258 262 266 266 265 267 269 271 274 275 274 273 273 275 278 282 285 288 287 286 286 286 286 285 282 281 281 281 281 280 280 282
252 248 249 248 247 249 249 249 251 254 255 256 257 262 267 265 263 267 271 274 273 272 272 272 273 274 277 279 281 283 285 286 286 287 288 287 284 282 281 281 281 282 282 282
254 253 251 252 250 249 249 247 251 254 257 259 259 262 264 264 263 263 266 271 274 273 272 271 270 273 275 277 280 282 284 285 286 287 289 287 284 282 281 281 281 282 283 284
255 256 254 252 249 248 250 253 251 253 256 260 263 263 264 263 262 262 263 266 269 272 271 271 272 274 276 278 280 282 284 285 287 288 287 286 284 283 282 280 279 279 281 283
256 257 255 252 248 245 246 250 253 255 257 260 263 262 262 262 261 260 259 263 267 269 271 273 275 275 276 277 280 284 286 287 288 289 288 287 287 286 283 280 279 279 279 281
255 256 254 252 251 249 249 250 252 254 256 260 263 265 264 264 261 260 260 263 268 272 273 274 276 276 276 277 279 283 285 286 288 287 287 286 287 288 286 283 281 280 281 280
258 257 257 254 253 252 252 252 254 256 258 259 263 266 262 262 262 263 266 268 269 271 273 273 274 276 276 277 277 279 282 285 287 288 288 287 287 287 285 284 282 283 282 282
257 257 257 259 258 255 253 252 254 256 259 260 263 264 261 262 262 264 268 271 272 270 272 274 275 276 276 277 277 279 282 284 286 288 288 288 289 287 285 283 282 283 283 283
257 257 257 259 258 256 256 256 256 256 258 261 263 262 262 264 265 264 268 269 272 272 273 273 273 274 275 276 278 279 281 283 285 286 287 288 288 288 287 284 282 282 283 284
257 256 257 257 258 258 256 255 256 257 258 259 261 261 261 264 265 265 267 268 270 270 270 271 273 274 273 275 278 281 282 284 286 287 287 287 287 288 287 286 284 284 285 285
257 257 257 257 257 258 257 258 258 260 261 263 263 262 260 260 263 264 265 267 268 271 272 272 274 276 276 277 277 280 282 282 284 286 286 286 287 287 286 285 284 285 286 286
258 259 261 260 258 258 262 260 260 262 262 263 265 263 262 261 262 266 267 267 268 270 271 273 274 274 275 277 278 279 280 281 283 284 285 286 287 286 286 286 285 285 286 286
258 260 262 263 262 263 262 264 264 265 265 265 265 264 264 266 267 268 269 268 267 268 269 271 273 274 275 276 278 280 280 282 283 283 284 286 287 286 286 287 286 286 285 285
259 259 259 262 264 266 266 265 265 267 265 265 267 268 268 269 268 267 267 266 265 267 269 270 272 273 275 276 277 279 281 283 283 284 285 286 287 288 287 287 287 287 287 287
260 258 259 262 264 267 267 267 267 267 268 268 269 271 272 271 270 270 270 269 269 270 271 270 271 273 274 276 278 279 281 283 284 284 286 288 288 288 288 287 287 287 288 288
261 260 260 262 264 267 268 269 268 270 269 271 271 272 273 275 274 275 275 274 273 273 272 272 273 274 275 276 278 279 281 283 284 285 286 287 288 288 287 287 287 288 288 288
259 261 262 261 265 269 269 270 270 271 271 273 273 272 275 278 278 278 278 277 276 274 273 273 274 275 276 278 279 280 281 283 284 285 286 287 288 288 287 288 288 288 288 287
259 261 262 264 268 270 270 271 271 272 272 274 275 276 277 278 279 280 279 278 277 275 274 273 273 274 276 277 278 280 281 283 284 286 286 287 288 289 289 289 288 288 287 286
261 262 264 265 266 268 270 272 273 272 274 275 276 278 279 278 278 279 280 278 277 277 277 275 274 276 276 277 278 279 280 282 284 285 286 287 287 287 288 288 288 287 286 286
261 264 265 266 268 270 271 272 272 274 275 276 277 278 279 280 279 279 279 278 278 278 277 276 276 277 277 277 278 279 280 282 283 284 285 285 286 286 287 287 287 286 285 285
Height
5843 5845 5846 5847 5847 5848 5849 5850 5850 5851 5851 5852 5852 5853 5853 5853 5853 5853 5853 5852 5852 5852 5851 5851 5850 5850 5850 5849 5849 5848 5847 5847 5847 5846 5845 5845 5844 5844 5843 5842 5841 5841 5840 5839
5842 5843 5844 5843 5844 5845 5846 5846 5847 5848 5848 5849 5849 5850 5850 5850 5850 5850 5850 5850 5849 5849 5849 5848 5848 5848 5847 5847 5846 5846 5845 5844 5844 5843 5842 5842 5841 5840 5840 5839 5838 5837 5836 5835
5839 5841 5840 5841 5841 5842 5843 5844 5845 5845 5845 5845 5846 5847 5847 5847 5847 5847 5847 5847 5847 5846 5846 5846 5845 5845 5844 5844 5843 5843 5842 5841 5840 5840 5839 5839 5838 5837 5837 5835 5835 5834 5833 5832
5835 5837 5837 5838 5838 5839 5840 5841 5841 5841 5842 5842 5843 5843 5844 5844 5843 5844 5844 5844 5844 5843 5843 5843 5842 5842 5841 5841 5840 5840 5839 5838 5837 5836 5836 5835 5834 5833 5833 5832 5831 5830 5829 5828
5832 5833 5834 5835 5836 5836 5836 5837 5837 5837 5837 5838 5839 5839 5841 5840 5840 5840 5840 5840 5840 5840 5840 5839 5839 5839 5838 5838 5837 5836 5836 5835 5834 5833 5832 5832 5831 5830 5829 5828 5827 5827 5826 5824
5829 5830 5830 5831 5832 5832 5833 5833 5833 5833 5834 5834 5835 5835 5836 5836 5836 5836 5836 5836 5836 5836 5836 5836 5835 5835 5835 5834 5834 5833 5832 5831 5830 5829 5829 5828 5827 5826 5825 5824 5823 5822 5821 5820
5825 5825 5826 5827 5827 5828 5829 5830 5830 5829 5829 5830 5831 5830 5832 5832 5832 5832 5832 5833 5833 5832 5832 5832 5831 5831 5831 5831 5830 5830 5829 5828 5827 5826 5825 5824 5822 5821 5820 5819 5819 5818 5816 5815
5820 5821 5822 5822 5823 5824 5824 5825 5826 5826 5825 5826 5826 5826 5828 5828 5828 5828 5828 5828 5828 5828 5828 5828 5828 5827 5827 5827 5826 5826 5825 5824 5823 5821 5820 5819 5818 5817 5816 5815 5814 5813 5811 5810
5815 5817 5817 5817 5818 5819 5820 5820 5821 5821 5821 5821 5822 5823 5823 5823 5824 5824 5824 5824 5824 5824 5824 5823 5823 5823 5823 5823 5822 5821 5820 5819 5818 5817 5816 5814 5813 5812 5811 5810 5809 5808 5806 5805
5810 5812 5813 5813 5814 5814 5815 5816 5816 5816 5816 5816 5817 5818 5819 5819 5819 5820 5820 5820 5820 5820 5820 5819 5819 5819 5818 5818 5817 5816 5816 5815 5813 5812 5811 5809 5808 5807 5806 5804 5803 5802 5801 5799
5805 5806 5808 5808 5809 5810 5811 5811 5811 5811 5812 5812 5812 5815 5814 5814 5815 5815 5816 5816 5816 5816 5815 5815 5814 5814 5813 5813 5812 5811 5810 5809 5808 5807 5806 5804 5803 5801 5800 5798 5797 5796 5795 5794
5800 5801 5801 5803 5804 5804 5805 5806 5806 5807 5807 5807 5807 5812 5809 5810 5810 5810 5810 5811 5811 5811 5810 5810 5809 5809 5808 5807 5807 5806 5805 5804 5803 5802 5800 5798 5797 5795 5794 5793 5791 5790 5789 5788
5794 5795 5796 5797 5799 5799 5799 5800 5800 5801 5801 5801 5802 5806 5805 5805 5805 5805 5805 5805 5805 5805 5805 5804 5803 5803 5802 5802 5801 5800 5799 5798 5797 5796 5794 5793 5791 5789 5788 5786 5785 5784 5782 5781
5789 5789 5791 5792 5792 5792 5793 5794 5794 5795 5795 5795 5796 5798 5799 5799 5799 5799 5799 5799 5799 5799 5799 5798 5798 5797 5796 5796 5795 5794 5793 5792 5791 5790 5788 5787 5785 5783 5782 5780 5778 5777 5776 5774
5783 5784 5784 5785 5786 5786 5787 5788 5789 5789 5789 5790 5791 5791 5792 5792 5793 5793 5793 5793 5793 5793 5792 5792 5792 5791 5790 5790 5789 5788 5787 5786 5785 5783 5782 5780 5778 5777 5775 5773 5772 5770 5768 5767
5778 5778 5779 5780 5780 5780 5781 5782 5782 5783 5783 5783 5784 5785 5786 5786 5786 5786 5786 5786 5786 5786 5785 5785 5785 5785 5784 5783 5783 5782 5781 5780 5778 5777 5775 5773 5771 5770 5768 5766 5764 5763 5761 5759
5773 5773 5773 5774 5775 5774 5775 5777 5776 5776 5777 5777 5778 5779 5779 5780 5779 5779 5779 5779 5779 5779 5778 5778 5778 5777 5777 5776 5775 5775 5774 5772 5771 5770 5768 5766 5764 5762 5760 5759 5757 5755 5753 5752
5767 5767 5768 5768 5769 5769 5773 5771 5770 5770 5770 5771 5771 5772 5772 5773 5773 5772 5772 5771 5771 5771 5771 5771 5770 5770 5769 5768 5767 5767 5766 5765 5763 5762 5760 5758 5757 5755 5753 5751 5749 5747 5745 5743
5762 5762 5762 5762 5762 5763 5765 5765 5764 5764 5764 5765 5765 5765 5765 5765 5765 5765 5764 5764 5764 5763 5763 5763 5762 5762 5761 5760 5760 5759 5758 5757 5756 5754 5753 5751 5749 5747 5745 5743 5741 5739 5737 5735
5756 5756 5756 5756 5756 5756 5760 5759 5758 5758 5758 5759 5759 5758 5759 5758 5758 5758 5757 5756 5756 5756 5755 5754 5754 5753 5753 5753 5752 5751 5750 5749 5748 5746 5744 5743 5741 5739 5737 5735 5732 5730 5728 5725
5750 5750 5750 5750 5749 5750 5752 5752 5752 5753 5754 5753 5752 5752 5752 5751 5751 5750 5749 5749 5748 5748 5747 5746 5746 5745 5745 5744 5744 5743 5742 5741 5740 5738 5736 5734 5732 5730 5728 5726 5723 5721 5718 5716
5743 5743 5743 5743 5744 5747 5745 5745 5745 5746 5745 5745 5745 5744 5744 5744 5743 5742 5742 5741 5740 5740 5739 5738 5738 5737 5737 5736 5735 5734 5734 5732 5731 5729 5727 5725 5723 5721 5719 5716 5714 5711 5709 5706
5737 5738 5737 5738 5740 5739 5739 5738 5738 5738 5738 5738 5738 5737 5737 5736 5735 5735 5734 5733 5732 5731 5731 5730 5729 5729 5728 5727 5727 5726 5725 5723 5722 5720 5718 5716 5714 5712 5710 5707 5704 5702 5699 5696
5731 5731 5731 5731 5732 5732 5731 5731 5731 5731 5731 5730 5730 5730 5729 5729 5728 5727 5726 5725 5723 5723 5722 5721 5721 5720 5720 5719 5718 5717 5715 5714 5712 5710 5709 5706 5704 5702 5700 5697 5694 5692 5689 5687
5724 5724 5724 5724 5725 5725 5725 5724 5724 5724 5723 5723 5722 5722 5721 5720 5719 5718 5718 5716 5715 5714 5713 5712 5712 5711 5710 5709 5708 5707 5706 5704 5703 5701 5699 5697 5695 5692 5690 5688 5685 5682 5680 5677
5717 5717 5717 5718 5718 5718 5718 5717 5717 5716 5716 5715 5714 5713 5712 5711 5710 5709 5709 5707 5706 5705 5704 5703 5702 5702 5701 5700 5699 5698 5696 5694 5693 5691 5689 5687 5685 5683 5680 5678 5676 5673 5670 5668